[[{"header":{"parameterUnit":"m.s-1","parameterCategory":1,"la1":30.2991,"la2":30.254,"lo1":-89.0895,"lo2":-89.0444,"dy":0.0017,"dx":0.0017,"nx":28,"ny":28,"refTime":"2023-11-22T09:00:00:Z","depth":0,"parameterNumber":2,"parameterNumberName":"U-component_of_WINDS"},"data":[0,0,0,0,0,0,0,0,0,0,0,0,0,0,0,0,0,0,0,0,0,0,0,0,0,0,0,0,0,0,0,0,0,0,0,0,0,0,0,0,0,0,0,0,0,0,0,0,0,0,0,0,0,0,0,0,0,0,-1.9375,-1.9375,0,-1.9433,-1.9434,-1.9435,-1.9409,-1.9408,-1.9407,-1.9405,-1.9465,-1.9468,-1.947,0,0,0,0,0,0,0,0,0,0,0,0,0,-1.9237,-1.924,-1.9374,-1.9375,-1.9376,-1.9433,-1.9434,-1.9435,-1.941,-1.9408,-1.9406,-1.9405,-1.9464,-1.9467,-1.9471,0,0,0,0,0,0,0,0,0,0,0,0,0,-1.9297,-1.9241,-1.9374,-1.937,-1.937,-1.9433,-1.9434,-1.9435,-1.941,-1.9408,-1.9406,-1.9404,-1.9463,-1.9467,-1.9471,-1.9541,0,0,-1.9485,-1.9486,0,0,0,0,0,0,0,0,-1.9293,-1.9302,-1.937,-1.9371,-1.9371,-1.9412,-1.9408,-1.9471,-1.9411,-1.9395,-1.9405,-1.9403,-1.9449,-1.9454,-1.947,-1.9544,-1.9546,-1.9485,-1.9488,-1.9489,-1.9491,0,0,0,0,0,0,0,-1.9289,-1.9299,-1.9398,-1.9371,-1.9372,-1.9365,-1.9371,-1.9419,-1.9433,-1.9396,-1.9394,-1.9402,-1.9449,-1.9466,-1.9471,-1.9547,-1.9485,-1.9489,-1.9491,-1.9493,-1.9679,-1.9681,0,0,0,0,0,0,-1.9285,-1.9296,-1.9396,-1.94,-1.9326,-1.9369,-1.9376,-1.9401,-1.9433,-1.9435,-1.9404,-1.94,-1.9459,-1.9466,-1.9473,-1.9555,-1.9489,-1.9494,-1.9496,-1.9677,-1.9679,-1.9682,0,0,0,0,0,0,-1.9283,-1.9295,-1.9393,-1.9347,-1.9359,-1.9373,-1.9402,-1.9403,-1.942,-1.9438,-1.944,-1.9419,-1.9458,-1.9467,-1.9524,-1.9557,-1.9496,-1.95,-1.9674,-1.9677,-1.9681,-1.9722,0,0,0,0,0,0,-1.9279,-1.9294,-1.9321,-1.9348,-1.9362,-1.9444,-1.9404,-1.9406,-1.9428,-1.9424,-1.9453,-1.9456,-1.9457,-1.9517,-1.9528,-1.9562,-1.9503,-1.9671,-1.9675,-1.968,-1.9717,-1.9726,-1.9734,0,0,0,0,0,-1.9274,-1.9331,-1.9323,-1.9335,-1.9397,-1.9446,-1.9454,-1.9455,-1.9431,-1.9458,-1.9469,-1.9455,-1.9552,-1.9524,-1.9535,-1.9571,-1.9669,-1.9674,-1.9679,-1.9714,-1.9724,-1.9733,0,0,0,0,0,0,-1.9308,-1.9334,-1.9326,-1.9393,-1.9418,-1.9442,-1.9476,-1.9466,-1.9498,-1.9493,-1.9492,-1.9499,-1.9557,-1.957,-1.9538,-1.9639,-1.9607,-1.9614,-1.9629,-1.9639,-1.9647,-1.9642,-1.9507,0,0,0,0,0,-1.9323,-1.9362,-1.9383,-1.944,-1.9453,-1.9462,-1.9484,-1.9482,-1.9507,-1.9518,-1.9533,-1.9557,-1.9593,-1.9617,-1.9651,-1.9719,-1.9724,-1.9749,-1.9757,-1.9764,-1.977,-1.9805,-1.9816,-1.9699,-1.9699,-1.9699,0,0,-1.9355,-1.9374,-1.9399,-1.9447,-1.9466,-1.9505,-1.9471,-1.9515,-1.9543,-1.9524,-1.9578,-1.959,-1.9617,-1.968,-1.9708,-1.9692,-1.9804,-1.977,-1.9775,-1.9779,-1.9812,-1.9823,-1.9832,-1.9702,-1.9702,-1.9701,0,0,-1.9433,-1.9452,-1.9501,-1.952,-1.9549,-1.9555,-1.9566,-1.9592,-1.9599,-1.9653,-1.9639,-1.9673,-1.9735,-1.9754,-1.9772,-1.9855,-1.9842,-1.9866,-1.9908,-1.9942,-1.9951,-1.9959,-1.9987,-1.9998,-1.9873,-1.9873,-1.9873,0,-1.9469,-1.9528,-1.9528,-1.9571,-1.9592,-1.9576,-1.9625,-1.9643,-1.9682,-1.9696,-1.9678,-1.9754,-1.9771,-1.9836,-1.9856,-1.9872,-1.9884,-1.9863,-1.995,-1.9958,-1.9966,-1.9992,-2.0003,-1.9875,-1.9875,-1.9875,-1.9875,0,-1.957,-1.9611,-1.9647,-1.9684,-1.9709,-1.9755,-1.976,-1.9785,-1.978,-1.9788,-1.9842,-1.9862,-1.9899,-1.9914,-1.9911,-1.9979,-1.9968,-1.995,-1.9917,-1.998,-2.0004,-2.0015,-1.9879,-1.9878,-1.9877,-1.9877,0,0,-1.9673,-1.9707,-1.972,-1.9736,-1.9765,-1.9796,-1.984,-1.9876,-1.9897,-1.9923,-1.9959,-2.0011,-1.9994,-2.0015,-2.0013,-2.0043,-2.0105,-2.0021,-2.0021,-2.0035,-2.0179,-2.0191,-2.0203,-2.0097,-2.0098,-2.01,-2.0176,0,-1.9752,-1.983,-1.983,-1.9902,-1.9938,-1.9922,-1.9961,-1.9982,-1.999,-2.0021,-2.0029,-2.0065,-2.0041,-2.0053,-2.0082,-2.0091,-2.0133,-2.0086,-2.0129,-2.0131,-2.0122,-2.0217,-2.023,-2.0301,-2.0186,-2.0188,-2.0189,0,-1.9855,-1.9884,-1.9959,-1.9981,-1.9997,-2.0031,-2.0063,-2.0094,-2.0117,-2.012,-2.0142,-2.0134,-2.0178,-2.0144,-2.0203,-2.017,-2.0188,-2.0195,-2.0198,-2.0201,-2.0163,-2.0221,-2.0324,-2.0334,-2.0204,-2.0203,-2.0202,0,-1.992,-1.9978,-2.003,-2.0044,-2.0071,-2.0096,-2.0108,-2.0129,-2.015,-2.0177,-2.0191,-2.0223,-2.024,-2.0265,-2.0266,-2.0241,-2.0325,-2.0291,-2.0327,-2.0327,-2.0346,-2.0344,-2.0451,-2.0358,-2.0358,-2.0358,-2.0358,0,-2.0008,-2.0055,-2.0059,-2.0091,-2.0142,-2.0141,-2.0191,-2.0201,-2.0219,-2.0252,-2.024,-2.0271,-2.0271,-2.0302,-2.0303,-2.0351,-2.0359,-2.0362,-2.0361,-2.0362,-2.0362,-2.0373,-2.0368,-2.0361,-2.036,-2.036,-2.0359,0,-2.009,-2.0095,-2.015,-2.0171,-2.0177,-2.0214,-2.0231,-2.026,-2.0266,-2.0307,-2.0317,-2.0326,-2.0361,-2.0365,-2.0407,-2.0407,-2.0464,-2.0459,-2.0456,-2.0455,-2.049,-2.0487,-2.0608,-2.0623,-2.0521,-2.0522,-2.0523,0,-2.0145,-2.018,-2.0204,-2.0225,-2.0239,-2.0273,-2.0294,-2.0293,-2.0315,-2.0343,-2.0369,-2.0403,-2.0431,-2.0488,-2.0497,-2.0528,-2.0523,-2.0563,-2.0528,-2.0527,-2.0522,-2.052,-2.0522,-2.057,-2.0571,-2.0572,-2.0573,0,-2.0242,-2.0243,-2.0273,-2.0305,-2.033,-2.0354,-2.0377,-2.0395,-2.0396,-2.0421,-2.0458,-2.0479,-2.052,-2.0554,-2.0584,-2.0596,-2.0584,-2.0584,-2.0594,-2.0595,-2.0591,-2.0592,-2.0474,-2.0581,-2.058,-2.058,-2.0579,-2.0579,-2.0312,-2.0341,-2.0362,-2.0396,-2.0413,-2.0434,-2.0463,-2.0471,-2.0501,-2.0535,-2.0533,-2.0572,-2.0592,-2.0631,-2.0645,-2.0675,-2.0661,-2.0676,-2.0679,-2.0683,-2.0686,-2.0587,-2.0681,-2.068,-2.068,-2.068,-2.068,0,-2.0407,-2.0419,-2.0451,-2.0483,-2.0509,-2.0496,-2.052,-2.0542,-2.0577,-2.0597,-2.0624,-2.0664,-2.0696,-2.0708,-2.0738,-2.076,-2.0755,-2.0768,-2.0766,-2.0768,-2.0697,-2.0685,-2.0771,-2.0771,-2.0771,-2.0771,-2.0771,-2.0771,-2.046,-2.0509,-2.0511,-2.0568,-2.0579,-2.0618,-2.0632,-2.0651,-2.0667,-2.0712,-2.0739,-2.0746,-2.0762,-2.0794,-2.0822,-2.0824,-2.0835,-2.085,-2.085,-2.0783,-2.0774,-2.0765,-2.0753,-2.0853,-2.0853,-2.0919,-2.092,-2.092]},{"header":{"parameterUnit":"m.s-1","parameterCategory":1,"la1":30.2991,"la2":30.254,"lo1":-89.0895,"lo2":-89.0444,"dy":0.0017,"dx":0.0017,"nx":28,"ny":28,"refTime":"2023-11-22T09:00:00:Z","depth":0,"parameterNumber":3,"parameterNumberName":"V-component_of_WINDS"},"data":[0,0,0,0,0,0,0,0,0,0,0,0,0,0,0,0,0,0,0,0,0,0,0,0,0,0,0,0,0,0,0,0,0,0,0,0,0,0,0,0,0,0,0,0,0,0,0,0,0,0,0,0,0,0,0,0,0,0,-2.4753,-2.4752,0,-2.4701,-2.47,-2.47,-2.4636,-2.4635,-2.4634,-2.4633,-2.458,-2.4579,-2.4579,0,0,0,0,0,0,0,0,0,0,0,0,0,-2.4798,-2.4798,-2.4753,-2.4752,-2.4752,-2.4701,-2.47,-2.4699,-2.4636,-2.4635,-2.4634,-2.4632,-2.458,-2.4579,-2.4579,0,0,0,0,0,0,0,0,0,0,0,0,0,-2.4766,-2.4798,-2.4753,-2.4714,-2.471,-2.4701,-2.47,-2.4699,-2.4636,-2.4635,-2.4633,-2.4632,-2.458,-2.458,-2.4579,-2.4604,0,0,-2.4577,-2.4576,0,0,0,0,0,0,0,0,-2.4768,-2.4764,-2.472,-2.4716,-2.4712,-2.4673,-2.4697,-2.4667,-2.4637,-2.4664,-2.4633,-2.4631,-2.4612,-2.4609,-2.4602,-2.4602,-2.46,-2.4577,-2.4576,-2.4576,-2.4576,0,0,0,0,0,0,0,-2.477,-2.4766,-2.4732,-2.472,-2.4715,-2.4699,-2.4693,-2.4691,-2.4647,-2.4662,-2.4657,-2.4652,-2.461,-2.4603,-2.4601,-2.4599,-2.4577,-2.4576,-2.4575,-2.4575,-2.4617,-2.4618,0,0,0,0,0,0,-2.4778,-2.4768,-2.4734,-2.4731,-2.4737,-2.47,-2.4692,-2.4687,-2.4647,-2.4639,-2.4653,-2.4649,-2.4605,-2.4601,-2.4598,-2.4625,-2.4576,-2.4575,-2.4575,-2.4615,-2.4617,-2.4619,0,0,0,0,0,0,-2.4779,-2.4776,-2.4736,-2.4748,-2.4742,-2.47,-2.4695,-2.4687,-2.468,-2.464,-2.4632,-2.4654,-2.4604,-2.4599,-2.4603,-2.4622,-2.4575,-2.4574,-2.4614,-2.4616,-2.4618,-2.4679,0,0,0,0,0,0,-2.4781,-2.4776,-2.4785,-2.4749,-2.4742,-2.4742,-2.4696,-2.4687,-2.4679,-2.4673,-2.4639,-2.4632,-2.4602,-2.4605,-2.4603,-2.462,-2.4574,-2.4612,-2.4615,-2.4617,-2.4675,-2.4683,-2.469,0,0,0,0,0,-2.4783,-2.4805,-2.4786,-2.4782,-2.4752,-2.4743,-2.4739,-2.4703,-2.4681,-2.469,-2.4664,-2.4634,-2.4621,-2.4606,-2.4603,-2.4621,-2.461,-2.4614,-2.4617,-2.4672,-2.4682,-2.469,0,0,0,0,0,0,-2.4844,-2.4799,-2.4778,-2.4789,-2.477,-2.4732,-2.4742,-2.4715,-2.4702,-2.4697,-2.4654,-2.4647,-2.4656,-2.4639,-2.4623,-2.4644,-2.4611,-2.4614,-2.4654,-2.4663,-2.467,-2.4673,-2.4573,0,0,0,0,0,-2.4859,-2.4855,-2.4816,-2.483,-2.4821,-2.4784,-2.4778,-2.4753,-2.4732,-2.4723,-2.4698,-2.4679,-2.4671,-2.4666,-2.4656,-2.4673,-2.4665,-2.4684,-2.4692,-2.4698,-2.4701,-2.4708,-2.4716,-2.463,-2.463,-2.463,0,0,-2.489,-2.4865,-2.4865,-2.4841,-2.4824,-2.4821,-2.4777,-2.4776,-2.4773,-2.4723,-2.4725,-2.4706,-2.4682,-2.4693,-2.4696,-2.4679,-2.4723,-2.4703,-2.4708,-2.4707,-2.4712,-2.472,-2.4728,-2.4633,-2.4632,-2.4632,0,0,-2.4943,-2.4925,-2.4933,-2.4917,-2.4891,-2.4866,-2.4868,-2.4835,-2.482,-2.4821,-2.4784,-2.4781,-2.4767,-2.4751,-2.4742,-2.4792,-2.4762,-2.479,-2.4828,-2.4836,-2.4842,-2.4848,-2.4865,-2.4871,-2.4793,-2.4793,-2.4793,0,-2.4984,-2.4978,-2.4941,-2.4942,-2.4933,-2.4888,-2.4897,-2.4883,-2.4855,-2.485,-2.4832,-2.4814,-2.4795,-2.4801,-2.4813,-2.4807,-2.4808,-2.4792,-2.4844,-2.485,-2.4854,-2.487,-2.4876,-2.4796,-2.4796,-2.4796,-2.4795,0,-2.5029,-2.5026,-2.5036,-2.501,-2.5003,-2.5008,-2.4972,-2.4969,-2.4945,-2.4922,-2.4924,-2.49,-2.4884,-2.4884,-2.486,-2.4887,-2.4877,-2.4852,-2.4818,-2.4867,-2.488,-2.4886,-2.4801,-2.48,-2.4799,-2.4798,0,0,-2.5118,-2.5073,-2.5077,-2.5065,-2.5034,-2.5031,-2.5034,-2.5019,-2.5017,-2.5,-2.5001,-2.4992,-2.4969,-2.4958,-2.4933,-2.494,-2.498,-2.4914,-2.4913,-2.4926,-2.5007,-2.5024,-2.5032,-2.4962,-2.4963,-2.4964,-2.5008,0,-2.5164,-2.5166,-2.5134,-2.5145,-2.5142,-2.51,-2.5103,-2.5085,-2.5064,-2.5058,-2.5036,-2.5029,-2.5,-2.4993,-2.4998,-2.4974,-2.4995,-2.4971,-2.4962,-2.4962,-2.4967,-2.5039,-2.5057,-2.5101,-2.5014,-2.5015,-2.5015,0,-2.5218,-2.5204,-2.5215,-2.5184,-2.5181,-2.5185,-2.5168,-2.5163,-2.5142,-2.5127,-2.5116,-2.5087,-2.5088,-2.5058,-2.506,-2.5044,-2.5039,-2.5027,-2.5027,-2.5024,-2.499,-2.5036,-2.5114,-2.512,-2.5024,-2.5023,-2.5022,0,-2.528,-2.5264,-2.5269,-2.526,-2.5224,-2.5227,-2.5213,-2.519,-2.5183,-2.517,-2.5165,-2.5152,-2.5144,-2.5135,-2.5104,-2.5085,-2.5109,-2.5076,-2.5096,-2.5096,-2.51,-2.51,-2.5177,-2.5101,-2.5101,-2.51,-2.51,0,-2.5334,-2.5342,-2.5296,-2.5298,-2.5306,-2.527,-2.5279,-2.526,-2.5241,-2.5239,-2.5204,-2.5203,-2.5163,-2.5158,-2.5134,-2.5138,-2.5136,-2.5123,-2.5116,-2.5125,-2.5127,-2.512,-2.5115,-2.5102,-2.5102,-2.5101,-2.5101,0,-2.5403,-2.5372,-2.5374,-2.5341,-2.5333,-2.534,-2.5312,-2.5313,-2.5291,-2.5289,-2.5287,-2.5252,-2.5245,-2.5214,-2.5199,-2.5183,-2.5195,-2.5182,-2.5201,-2.5197,-2.5217,-2.5215,-2.5291,-2.5299,-2.5219,-2.522,-2.5221,0,-2.5438,-2.5443,-2.5411,-2.5407,-2.5394,-2.5389,-2.5382,-2.5347,-2.5341,-2.5318,-2.5322,-2.5312,-2.5302,-2.5292,-2.5265,-2.5254,-2.524,-2.5268,-2.5238,-2.5247,-2.5239,-2.5238,-2.5238,-2.5273,-2.5274,-2.5275,-2.5276,0,-2.5503,-2.5489,-2.548,-2.5466,-2.5459,-2.5446,-2.5432,-2.5431,-2.5392,-2.5388,-2.538,-2.5372,-2.5357,-2.5347,-2.5332,-2.5317,-2.529,-2.5286,-2.5289,-2.5297,-2.5308,-2.5301,-2.5217,-2.5284,-2.5283,-2.5282,-2.5282,-2.5282,-2.5555,-2.5558,-2.5536,-2.5527,-2.5513,-2.5501,-2.55,-2.5478,-2.5471,-2.5456,-2.5436,-2.5431,-2.541,-2.5387,-2.5375,-2.537,-2.5355,-2.536,-2.5361,-2.5363,-2.5367,-2.5311,-2.5367,-2.5367,-2.5367,-2.5367,-2.5366,0,-2.5618,-2.5602,-2.5594,-2.5575,-2.5569,-2.5545,-2.5528,-2.5525,-2.552,-2.5504,-2.5494,-2.5486,-2.5476,-2.545,-2.5438,-2.544,-2.5427,-2.5438,-2.5436,-2.5433,-2.5382,-2.5379,-2.5448,-2.5448,-2.5448,-2.5448,-2.5448,-2.5448,-2.5649,-2.5652,-2.5635,-2.5631,-2.5615,-2.5609,-2.5601,-2.559,-2.5577,-2.5568,-2.556,-2.5544,-2.5523,-2.551,-2.5501,-2.5493,-2.549,-2.5504,-2.5493,-2.5445,-2.5437,-2.5429,-2.5426,-2.5504,-2.5505,-2.5544,-2.5545,-2.5545]}]]